Regional Weather Roundup
Issued by NWS New Orleans/Baton Rouge, LA

Home | Current Version | Previous Version | Text Only | Print | Product List | Glossary On
Versions: 1 2 3 4 5 6 7 8 9 10 11 12 13 14 15 16 17 18 19 20 21 22 23 24 25 26 27 28 29 30 31 32 33 34 35 36 37 38 39 40 41 42 43 44 45 46 47 48 49 50
277
ASUS44 KLIX 260105
RWRLIX
NEW ORLEANS REGIONAL WEATHER ROUNDUP
NATIONAL WEATHER SERVICE NEW ORLEANS LA
700 PM CST SUN JAN 25 2015

NOTE: "FAIR" INDICATES FEW OR NO CLOUDS BELOW 12,000 FEET WITH NO
      SIGNIFICANT WEATHER AND/OR OBSTRUCTIONS TO VISIBILITY.
      SKY/WX - SKY CONDITION AND SIGNIFICANT WEATHER.
      TMP - AIR TEMPERATURE.     DP    - DEWPOINT TEMPERATURE.
      RH  - RELATIVE HUMIDITY.   PRES  - PRESSURE.
      HI  - HEAT INDEX.          WCI   - WIND CHILL INDEX.

*  THESE STATIONS ARE NOT NWS OR FAA STATIONS AND ARE NOT UNDER
   NWS QUALITY CONTROL.

LAZ038-040-048-061>063-065>067-069-260200-
SOUTHEAST LOUISIANA

CITY           SKY/WX    TMP DP  RH WIND       PRES   REMARKS
N.O. AUDUBON     N/A     54  44  69 MISG        N/A
N.O. INTL ARPT PTCLDY    58  41  53 W15       29.91R
N.O. LAKEFRONT CLEAR     58  44  60 W16       29.91R
N.O. DOWNTOWN*   N/A     57  39  51 SW6       29.92R
SLIDELL        CLEAR     59  40  49 VRB6      29.88R
BATON ROUGE    CLEAR     57  43  59 W9        29.91R
BOOTHVILLE     PTCLDY    61  49  64 W21G32    29.92S
BELLE CHASSE   CLEAR     58  43  57 W10       29.91R
BOGALUSA*        N/A     58  39  49 W5        29.88R
GALLIANO*      CLEAR     59  49  68 MISG      29.91S
NEW ROADS*       N/A     58  41  53 W7        29.92R
GONZALES*        N/A     57  43  59 SW3       29.91R
HAMMOND*       CLEAR     59  39  47 W6        29.90R
HOUMA*         CLEAR     55  48  75 W12G18    29.93R
PORT FOURCHON* CLEAR     59  52  77 W17G25    29.97R

$$

MSZ070-080>082-260200-
SOUTHERN MISSISSIPPI

CITY           SKY/WX    TMP DP  RH WIND       PRES   REMARKS
MCCOMB         CLEAR     58  39  49 NW7       29.88R
GULFPORT       CLEAR     57  40  52 W7        29.87R
BILOXI         CLEAR     56  44  64 W6        29.86R
PASCAGOULA     CLEAR     56  42  59 W8        29.87R
STENNIS ARPT*  CLEAR     55  36  47 W8        29.88R

$$

COASTAL OBSERVATIONS
LAKE AND NEARSHORE STATIONS

STATION/POSITION TIME  TEMP    WIND        PRES    WAVE
                       AIR SEA DIR/SP/G            HT/PER
                 (UTC) (F)     (DEG/KT/KT) (MB)    (FT/S)
PASCAGOULA       0100   58     250/ 13/ 16 1011.0
WAVELAND YACHT   0100   58     270/  7/  9 1010.6
GRAND ISLE       0100   60 59  260/ 18/ 21 1013.6
SOUTHWEST PASS   0100   59 47  250/ 27/ 35 1013.9
NEW CANAL        0100   59 52  250/ 10/ 14 1012.8
SHELL BEACH      0100   57 54  240/ 15/ 22 1011.8

OFFSHORE STATIONS

STATION/POSITION TIME  TEMP    WIND        PRES    WAVE
                       AIR SEA DIR/SP/G            HT/PER
                 (UTC) (F)     (DEG/KT/KT) (MB)    (FT/S)
64 S DAUPHIN ISL 0037   65 71  260/ 29/ 37 1012.5    7/ 6

$$




USA.gov is the U.S. government's official web portal to all federal, state and local government web resources and services.